SCP
0 0 0 0 0 0 0 0 0 0 0 0 0 0 0 0 0 0 0 0 0 0 0 0 0 0 0 0 0 0 0 0 0 0 0 0 0 0 0 0 0 0 0 0
0 0 0 0 0 0 0 0 0 0 0 0 0 0 0 0 0 0 -0 -0 0 0 0 0 0 0 0 0 0 0 0 0 0 0 0 0 0 0 0 0 0 0 0 0
0 0 0 0 0 0 0 0 0 0 0 0 0 0 0 0 0 0 0 0 0 0 0 0 0 0 0 0 0 0 0 0 0 0 0 0 0 0 0 0 0 0 0 0
0 -0 0 0 0 0 0 0 0 0 0 0 0 0 0 0 0 0 0 0 0 0 0 0 0 0 0 0 0 0 0 0 0 0 0 0 0 0 0 0 0 0 0 0
0 0 0 0 0 0 0 0 0 0 0 0 0 0 0 0 0 0 0 0 0 0 0 0 0 0 0 0 0 0 0 0 0 0 0 0 0 0 0 0 0 0 0 0
0 0 0 0 0 0 -0 0 0 0 0 0 0 0 0 0 0 0 0 0 0 0 0 0 0 0 0 0 0 0 0 0 0 0 0 0 0 0 0 0 0 0 0 0
0 0 0 0 0 0 -0 0 0 0 0 0 0 0 0 0 0 0 0 0 0 0 0 0 0 0 0 0 0 0 0 0 0 0 0 0 0 0 0 0 0 0 0 0
0 0 0 0 0 0 0 -0 -0 -0 -0 -0 -0 -0 -0 -0 -0 -0 0 0 0 0 0 0 0 0 0 0 0 0 0 0 0 0 0 0 0 0 0 0 0 0 0 0
0 0 -0 -0 -0 -0 -0 -0 -0 -0 -0 -0 -0 -0 -0 -0 -0 -0 -0 -0 -0 -0 0 0 0 0 0 0 0 0 0 0 0 0 0 0 0 0 0 0 0 0 0 0
0 0 0 0 -0 -0 0 -0 -0 -0 -0 -0 -0 -0 -0 -0 -0 -0 -0 -0 -0 -0 -0 -0 -0 -0 0 0 0 0 0 0 0 0 0 0 0 0 0 0 0 0 0 0
0 0 0 0 0 0 -0 0 0 -0 -0 -0 -0 -0 -0 -0 -0 -0 -0 -0 -0 -0 -0 -0 -0 0 0 0 0 0 0 0 0 0 0 0 0 0 0 0 0 0 0 0
0 0 0 0 0 0 0 0 -0 -0 -0 -0 -0 -0 -0 -0 -0 -0 -0 -0 -0 -0 -0 0 0 0 0 0 0 0 0 0 0 0 0 0 0 0 0 0 0 0 0 0
0 0 0 0 0 0 0 0 0 0 -0 -0 -0 -0 -0 -0 -0 -0 -0 -0 -0 -0 -0 0 0 0 0 0 0 0 0 0 0 0 0 0 0 0 0 0 0 0 0 0
0 0 0 0 0 0 0 0 0 0 0 -0 -0 -0 -0 -0 -0 -0 -0 -0 -0 -0 0 0 0 0 0 0 0 0 0 0 0 0 0 0 0 0 0 0 0 0 0 0
0 0 0 0 0 0 0 0 0 0 0 0 -0 -0 -0 -0 -0 -0 -0 -0 -0 0 0 0 0 0 0 0 0 0 0 0 0 0 0 0 0 0 0 0 0 0 0 0
0 0 0 0 0 0 0 0 0 0 0 0 0 -0 -0 -0 -0 -0 -0 -0 -0 0 0 0 0 0 0 0 0 0 0 0 0 0 0 0 0 0 0 0 0 0 0 0
0 0 0 0 0 0 0 0 0 0 0 0 0 0 0 -0 -0 -0 -0 -0 0 0 0 0 0 0 0 0 0 0 0 0 0 0 0 0 0 0 0 0 0 0 0 0
0 0 0 0 0 0 0 0 0 0 0 0 0 0 0 0 -0 -0 -0 0 0 0 0 0 0 0 0 0 0 0 0 0 0 0 0 0 0 0 0 0 0 0 0 0
0 0 0 0 0 0 0 0 0 -0 0 0 0 0 0 0 0 0 0 0 0 0 0 0 0 0 0 0 0 0 0 0 0 0 0 0 0 0 0 0 0 0 0 0
0 0 0 0 0 -0 -0 -0 -0 -0 -0 0 0 0 -0 -0 -0 -0 0 0 0 0 0 0 0 0 0 0 0 0 0 0 0 0 0 0 0 0 0 0 0 0 0 0
0 0 0 -0 -0 -0 -0 -0 -0 -0 0 0 0 0 -0 -0 -0 -0 0 0 0 0 0 0 0 0 0 0 0 0 0 0 0 0 0 0 0 0 0 0 0 0 0 0
0 -0 -0 -0 -0 0 -0 -0 0 0 0 0 0 0 0 -0 -0 -0 -0 -0 0 0 0 0 0 0 0 0 0 0 0 0 0 0 0 0 0 0 0 0 0 0 0 0
-0 -0 -0 0 0 0 0 0 0 0 0 0 0 0 0 0 0 0 0 0 0 0 0 0 0 0 0 0 0 0 0 0 0 0 0 0 0 0 0 0 0 0 0 0
-0 0 0 0 0 -0 0 0 0 0 0 0 -0 -0 0 -0 0 -0 0 -0 -0 -0 0 0 0 0 0 0 0 0 0 0 0 0 0 0 0 0 0 0 0 0 0 0
0 0 0 -0 -0 -0 -0 -0 0 0 0 0 0 0 0 0 0 0 0 0 0 0 0 -0 -0 -0 0 0 -0 0 0 -0 -0 0 0 0 0 0 0 0 0 0 0 0
0 0 -0 -0 -0 -0 0 0 0 0 0 0 0 0 0 0 0 0 0 0 0 0 0 0 -0 -0 0 -0 -0 -0 -0 0 0 0 0 0 0 0 0 0 0 0 0 0
0 -0 -0 0 -0 -0 0 0 0 0 0 0 0 0 0 0 0 0 0 0 0 0 0 0 0 0 -0 -0 0 0 0 0 0 0 -0 -0 0 0 0 0 0 0 0 0
Wind_Speed_500mb
48 60 58 60 61 54 51 53 51 53 60 50 56 63 62 53 65 45 61 64 70 79 85 90 83 73 68 71 82 89 89 94 99 95 97 98 100 97 97 96 91 86 85 85
40 44 49 55 59 64 69 73 72 72 67 56 62 79 71 76 75 62 59 58 74 88 84 92 89 94 97 93 92 94 100 100 101 102 99 101 97 96 95 92 89 86 85 87
46 38 36 42 52 65 66 66 57 60 68 52 53 51 51 60 41 49 51 54 54 58 69 80 91 90 84 81 80 90 93 98 101 104 100 97 93 92 92 92 88 86 88 88
37 47 63 48 30 47 62 65 64 44 34 36 38 59 32 47 61 61 65 77 76 76 64 58 57 61 70 70 72 75 80 88 93 94 95 92 89 88 88 90 87 88 90 89
24 40 43 24 14 17 19 5 27 25 29 36 71 62 32 75 73 62 66 75 83 83 75 72 65 60 48 40 50 63 74 78 80 84 85 85 85 85 84 87 89 91 90 88
36 44 50 10 26 48 26 22 43 27 32 37 53 28 28 85 79 81 72 77 86 86 81 74 73 68 60 55 40 40 53 66 70 69 74 78 78 79 80 83 84 84 84 85
25 33 19 25 31 49 14 22 51 33 46 43 26 26 68 76 73 68 61 72 79 81 78 77 71 69 66 54 44 37 37 47 50 54 61 69 71 74 75 78 82 84 83 82
8 9 20 55 42 12 24 39 25 30 34 43 51 68 67 67 72 74 71 71 76 86 86 75 69 67 63 53 46 32 33 37 35 41 52 60 63 67 70 79 81 83 81 84
5 13 45 49 26 54 21 25 28 42 58 53 51 52 54 57 61 69 67 67 68 76 86 87 72 58 59 46 51 49 39 42 42 34 45 53 59 65 72 77 83 85 87 89
10 15 27 53 58 36 39 47 55 53 56 55 46 55 62 68 73 73 78 81 83 83 85 84 73 72 71 61 54 63 60 55 56 61 54 54 58 66 73 80 87 91 95 97
20 33 48 42 45 43 45 42 39 54 60 58 45 70 64 77 89 82 83 81 74 70 83 91 82 81 87 81 70 70 73 75 70 69 71 69 71 74 76 84 90 97 101 99
31 46 39 47 55 47 38 36 53 43 55 71 67 74 73 76 84 84 92 94 95 96 94 93 84 82 86 70 76 72 73 82 85 76 77 79 81 80 80 88 90 91 89 90
39 55 50 66 68 29 33 63 58 67 72 71 74 56 65 76 91 91 101 96 94 97 101 101 95 97 88 81 75 76 76 77 85 88 80 82 82 84 88 62 67 82 92 88
41 40 42 28 25 55 58 59 73 85 88 75 72 79 74 78 90 86 83 78 86 100 106 98 97 99 87 74 72 95 90 80 85 87 85 82 84 86 86 86 81 70 58 86
18 23 31 51 62 56 69 74 87 99 94 94 75 68 71 78 83 92 97 99 100 98 99 91 92 96 81 69 58 69 77 89 85 82 79 77 77 75 77 77 79 82 76 64
36 40 42 43 67 73 76 81 68 88 89 92 87 81 76 77 87 93 95 93 89 97 92 90 93 90 79 71 64 63 67 73 80 77 77 72 69 71 76 85 89 88 87 84
40 37 59 75 66 78 74 75 73 82 94 90 89 87 86 82 87 88 88 84 83 88 87 89 96 86 82 72 66 65 68 66 74 77 73 71 70 76 82 92 94 93 92 90
36 46 51 60 77 86 100 93 88 88 89 89 88 85 82 78 84 91 87 83 80 85 86 85 84 76 70 66 57 55 63 70 70 74 72 68 72 81 89 92 97 98 92 82
48 58 61 62 69 74 78 85 83 83 84 84 82 83 84 85 83 81 82 74 74 86 75 71 66 56 46 48 47 49 65 67 65 66 64 63 70 81 91 98 102 93 87 83
62 64 68 72 70 67 74 76 77 81 78 77 79 77 79 73 71 72 65 65 64 54 57 62 51 29 31 26 29 47 59 60 61 61 64 68 76 82 90 93 88 85 86 81
66 69 70 69 70 67 67 68 71 75 74 67 69 66 67 65 54 52 50 49 49 45 43 40 32 21 10 22 33 42 47 51 55 58 66 71 73 77 76 80 82 83 81 72
63 65 66 64 63 65 63 67 60 60 59 60 53 54 55 47 45 40 24 33 41 36 30 21 12 4 10 17 22 30 34 40 45 50 55 58 62 69 77 80 76 77 71 64
58 58 58 55 55 59 61 53 50 46 46 45 47 46 43 31 30 37 43 36 27 23 17 14 8 3 5 12 20 25 29 35 41 46 51 58 66 71 71 72 76 74 68 61
52 49 48 46 48 48 54 48 41 37 36 36 35 34 37 36 26 24 21 19 19 20 22 16 12 10 11 18 21 24 29 33 38 43 53 60 63 65 69 69 67 62 55 48
39 39 41 41 40 44 44 39 35 35 34 33 33 33 31 30 31 30 25 23 22 23 24 20 18 19 25 28 30 34 39 44 48 50 51 53 57 58 57 54 51 47 42 37
32 35 35 29 31 34 33 32 32 33 35 34 34 35 36 34 32 33 34 34 34 37 41 40 40 41 45 47 50 52 50 48 46 46 47 48 48 47 45 43 40 36 34 31
29 32 33 32 29 28 27 28 28 30 34 31 31 32 33 33 35 38 42 45 47 48 49 50 51 51 51 51 51 51 48 45 42 41 40 40 39 38 37 35 33 30 27 23
Wind_Direction_500mb
244 251 254 257 265 259 252 247 250 254 251 248 256 270 276 281 285 276 282 278 280 282 281 284 279 277 279 273 276 271 261 255 252 253 252 249 247 247 245 243 241 238 234 232
283 272 257 250 248 252 261 260 260 261 260 261 260 265 276 279 282 287 280 278 280 276 272 272 273 278 276 273 274 269 260 257 255 251 251 248 246 243 241 239 236 233 231 231
279 288 297 278 259 259 258 261 257 259 257 267 268 263 270 295 0 27 8 4 353 324 303 293 284 283 279 280 278 270 265 258 251 250 249 247 244 240 237 235 232 229 228 228
273 274 269 273 240 239 251 258 266 289 4 5 344 319 342 17 14 357 345 348 347 349 352 343 314 288 279 273 269 267 264 259 254 250 248 244 240 237 235 232 229 227 227 227
257 259 279 284 7 349 337 55 27 360 6 1 354 333 54 8 352 338 334 330 331 335 338 341 339 341 318 294 282 269 264 259 255 249 244 241 236 233 231 228 225 225 226 227
284 281 274 44 4 319 296 220 360 346 2 360 356 345 327 330 326 326 329 331 326 327 330 333 337 337 335 334 312 291 272 261 252 246 244 241 237 233 230 228 228 225 225 225
278 275 275 17 5 341 280 329 325 331 345 339 338 318 310 317 319 322 323 321 321 319 319 322 329 328 326 322 331 324 299 279 267 256 246 241 237 232 229 224 222 222 222 225
327 309 252 4 344 351 289 312 307 333 323 323 319 311 310 306 308 310 312 317 318 315 316 316 316 321 319 319 314 315 316 302 278 267 255 245 237 233 226 224 221 221 220 219
195 255 294 306 297 305 297 325 332 321 317 320 313 306 310 310 310 309 309 314 311 309 310 313 313 309 305 313 310 300 288 289 294 284 263 251 242 234 226 224 223 220 218 218
297 259 271 290 294 279 311 316 310 307 309 315 307 310 313 312 308 307 313 314 312 310 308 307 306 305 298 299 296 294 282 275 274 276 272 257 246 239 235 230 225 222 218 214
268 280 280 282 294 299 307 299 295 303 306 313 310 311 313 311 313 312 310 309 303 299 297 295 296 300 297 294 290 288 284 274 265 258 252 248 245 245 242 239 235 229 222 216
262 274 288 287 295 308 297 301 314 306 302 309 310 308 309 306 307 306 306 306 304 303 300 298 298 288 285 294 293 288 280 276 266 257 252 245 239 235 231 231 228 228 231 218
264 275 275 282 298 289 287 308 308 305 304 301 307 297 297 297 302 302 302 303 300 299 299 298 297 289 284 281 278 279 276 275 272 260 249 244 238 232 226 221 223 219 215 212
274 284 286 286 288 295 307 306 307 308 309 308 304 306 302 298 299 295 291 292 292 296 298 299 295 291 293 286 275 269 271 274 270 262 253 244 237 232 225 219 202 194 193 206
258 283 285 295 298 302 308 312 312 310 311 309 306 301 300 298 296 297 298 301 303 301 298 299 295 287 293 291 275 269 269 264 266 259 254 245 237 230 224 206 191 179 172 183
300 304 306 299 304 310 313 312 305 305 306 305 304 303 301 296 295 298 301 305 302 301 301 298 293 292 294 289 279 265 265 266 261 256 247 238 231 224 207 193 184 179 179 180
331 325 319 313 313 312 309 307 303 300 301 301 301 303 302 300 299 298 304 305 301 299 299 297 296 299 293 284 272 256 255 258 256 249 241 234 226 210 193 185 183 180 188 191
310 305 304 303 306 309 309 309 306 305 301 303 302 301 300 299 296 301 304 310 305 302 302 302 300 294 286 277 265 249 247 248 241 233 226 216 206 194 188 187 186 195 190 183
316 314 314 309 310 307 302 304 305 304 303 303 302 300 299 300 303 304 306 308 300 307 312 314 307 286 280 277 260 254 236 235 226 218 216 209 199 195 192 193 195 194 183 180
320 320 319 319 321 317 311 314 316 311 308 306 307 304 303 305 304 307 312 302 309 314 317 319 324 305 286 275 228 222 222 219 213 206 199 195 190 188 191 196 194 183 182 187
324 323 323 324 324 323 324 325 316 312 317 320 317 311 310 314 319 322 317 316 326 328 326 322 323 317 280 207 201 201 200 197 196 195 189 188 188 191 193 189 182 180 181 180
326 325 325 327 326 325 330 323 324 324 328 327 331 336 334 333 334 341 343 331 337 343 342 350 346 299 199 199 191 186 185 187 188 187 189 190 192 187 179 177 176 177 175 175
326 326 326 326 329 330 328 334 335 336 338 341 340 343 352 355 4 3 1 14 15 16 28 33 25 60 137 156 166 170 174 178 180 182 184 185 179 173 170 171 173 174 175 176
329 328 327 333 334 331 335 342 346 351 345 344 346 350 358 6 22 26 27 28 34 50 41 35 52 72 109 129 140 150 160 168 169 169 167 164 162 165 169 169 169 170 172 175
333 335 341 338 338 340 342 349 358 6 5 9 13 19 18 16 18 18 26 32 37 47 64 69 66 84 100 111 120 126 133 139 142 144 146 153 158 161 162 164 166 168 171 176
349 353 347 349 351 349 351 0 9 16 16 22 31 35 40 42 45 48 50 56 63 72 77 80 85 94 101 107 111 113 116 121 129 136 142 147 150 154 157 160 164 170 177 186
15 11 7 11 15 12 12 15 22 25 28 26 40 47 57 61 65 71 74 75 76 80 86 91 96 98 101 105 109 112 115 120 126 132 138 143 148 153 158 164 171 179 187 196
Wind_Speed_850mb
48 60 58 60 61 54 51 53 51 53 60 50 56 63 62 53 65 45 61 64 70 79 85 90 83 73 68 71 82 89 89 94 99 95 97 98 100 97 97 96 91 86 85 85
40 44 49 55 59 64 69 73 72 72 67 56 62 79 71 76 75 62 59 58 74 88 84 92 89 94 97 93 92 94 100 100 101 102 99 101 97 96 95 92 89 86 85 87
46 38 36 42 52 65 66 66 57 60 68 52 53 51 51 60 41 49 51 54 54 58 69 80 91 90 84 81 80 90 93 98 101 104 100 97 93 92 92 92 88 86 88 88
37 47 63 48 30 47 62 65 64 44 34 36 38 59 32 47 61 61 65 77 76 76 64 58 57 61 70 70 72 75 80 88 93 94 95 92 89 88 88 90 87 88 90 89
24 40 43 24 14 17 19 5 27 25 29 36 71 62 32 75 73 62 66 75 83 83 75 72 65 60 48 40 50 63 74 78 80 84 85 85 85 85 84 87 89 91 90 88
36 44 50 10 26 48 26 22 43 27 32 37 53 28 28 85 79 81 72 77 86 86 81 74 73 68 60 55 40 40 53 66 70 69 74 78 78 79 80 83 84 84 84 85
25 33 19 25 31 49 14 22 51 33 46 43 26 26 68 76 73 68 61 72 79 81 78 77 71 69 66 54 44 37 37 47 50 54 61 69 71 74 75 78 82 84 83 82
8 9 20 55 42 12 24 39 25 30 34 43 51 68 67 67 72 74 71 71 76 86 86 75 69 67 63 53 46 32 33 37 35 41 52 60 63 67 70 79 81 83 81 84
5 13 45 49 26 54 21 25 28 42 58 53 51 52 54 57 61 69 67 67 68 76 86 87 72 58 59 46 51 49 39 42 42 34 45 53 59 65 72 77 83 85 87 89
10 15 27 53 58 36 39 47 55 53 56 55 46 55 62 68 73 73 78 81 83 83 85 84 73 72 71 61 54 63 60 55 56 61 54 54 58 66 73 80 87 91 95 97
20 33 48 42 45 43 45 42 39 54 60 58 45 70 64 77 89 82 83 81 74 70 83 91 82 81 87 81 70 70 73 75 70 69 71 69 71 74 76 84 90 97 101 99
31 46 39 47 55 47 38 36 53 43 55 71 67 74 73 76 84 84 92 94 95 96 94 93 84 82 86 70 76 72 73 82 85 76 77 79 81 80 80 88 90 91 89 90
39 55 50 66 68 29 33 63 58 67 72 71 74 56 65 76 91 91 101 96 94 97 101 101 95 97 88 81 75 76 76 77 85 88 80 82 82 84 88 62 67 82 92 88
41 40 42 28 25 55 58 59 73 85 88 75 72 79 74 78 90 86 83 78 86 100 106 98 97 99 87 74 72 95 90 80 85 87 85 82 84 86 86 86 81 70 58 86
18 23 31 51 62 56 69 74 87 99 94 94 75 68 71 78 83 92 97 99 100 98 99 91 92 96 81 69 58 69 77 89 85 82 79 77 77 75 77 77 79 82 76 64
36 40 42 43 67 73 76 81 68 88 89 92 87 81 76 77 87 93 95 93 89 97 92 90 93 90 79 71 64 63 67 73 80 77 77 72 69 71 76 85 89 88 87 84
40 37 59 75 66 78 74 75 73 82 94 90 89 87 86 82 87 88 88 84 83 88 87 89 96 86 82 72 66 65 68 66 74 77 73 71 70 76 82 92 94 93 92 90
36 46 51 60 77 86 100 93 88 88 89 89 88 85 82 78 84 91 87 83 80 85 86 85 84 76 70 66 57 55 63 70 70 74 72 68 72 81 89 92 97 98 92 82
48 58 61 62 69 74 78 85 83 83 84 84 82 83 84 85 83 81 82 74 74 86 75 71 66 56 46 48 47 49 65 67 65 66 64 63 70 81 91 98 102 93 87 83
62 64 68 72 70 67 74 76 77 81 78 77 79 77 79 73 71 72 65 65 64 54 57 62 51 29 31 26 29 47 59 60 61 61 64 68 76 82 90 93 88 85 86 81
66 69 70 69 70 67 67 68 71 75 74 67 69 66 67 65 54 52 50 49 49 45 43 40 32 21 10 22 33 42 47 51 55 58 66 71 73 77 76 80 82 83 81 72
63 65 66 64 63 65 63 67 60 60 59 60 53 54 55 47 45 40 24 33 41 36 30 21 12 4 10 17 22 30 34 40 45 50 55 58 62 69 77 80 76 77 71 64
58 58 58 55 55 59 61 53 50 46 46 45 47 46 43 31 30 37 43 36 27 23 17 14 8 3 5 12 20 25 29 35 41 46 51 58 66 71 71 72 76 74 68 61
52 49 48 46 48 48 54 48 41 37 36 36 35 34 37 36 26 24 21 19 19 20 22 16 12 10 11 18 21 24 29 33 38 43 53 60 63 65 69 69 67 62 55 48
39 39 41 41 40 44 44 39 35 35 34 33 33 33 31 30 31 30 25 23 22 23 24 20 18 19 25 28 30 34 39 44 48 50 51 53 57 58 57 54 51 47 42 37
32 35 35 29 31 34 33 32 32 33 35 34 34 35 36 34 32 33 34 34 34 37 41 40 40 41 45 47 50 52 50 48 46 46 47 48 48 47 45 43 40 36 34 31
29 32 33 32 29 28 27 28 28 30 34 31 31 32 33 33 35 38 42 45 47 48 49 50 51 51 51 51 51 51 48 45 42 41 40 40 39 38 37 35 33 30 27 23
Wind_Direction_850mb
244 251 254 257 265 259 252 247 250 254 251 248 256 270 276 281 285 276 282 278 280 282 281 284 279 277 279 273 276 271 261 255 252 253 252 249 247 247 245 243 241 238 234 232
283 272 257 250 248 252 261 260 260 261 260 261 260 265 276 279 282 287 280 278 280 276 272 272 273 278 276 273 274 269 260 257 255 251 251 248 246 243 241 239 236 233 231 231
279 288 297 278 259 259 258 261 257 259 257 267 268 263 270 295 0 27 8 4 353 324 303 293 284 283 279 280 278 270 265 258 251 250 249 247 244 240 237 235 232 229 228 228
273 274 269 273 240 239 251 258 266 289 4 5 344 319 342 17 14 357 345 348 347 349 352 343 314 288 279 273 269 267 264 259 254 250 248 244 240 237 235 232 229 227 227 227
257 259 279 284 7 349 337 55 27 360 6 1 354 333 54 8 352 338 334 330 331 335 338 341 339 341 318 294 282 269 264 259 255 249 244 241 236 233 231 228 225 225 226 227
284 281 274 44 4 319 296 220 360 346 2 360 356 345 327 330 326 326 329 331 326 327 330 333 337 337 335 334 312 291 272 261 252 246 244 241 237 233 230 228 228 225 225 225
278 275 275 17 5 341 280 329 325 331 345 339 338 318 310 317 319 322 323 321 321 319 319 322 329 328 326 322 331 324 299 279 267 256 246 241 237 232 229 224 222 222 222 225
327 309 252 4 344 351 289 312 307 333 323 323 319 311 310 306 308 310 312 317 318 315 316 316 316 321 319 319 314 315 316 302 278 267 255 245 237 233 226 224 221 221 220 219
195 255 294 306 297 305 297 325 332 321 317 320 313 306 310 310 310 309 309 314 311 309 310 313 313 309 305 313 310 300 288 289 294 284 263 251 242 234 226 224 223 220 218 218
297 259 271 290 294 279 311 316 310 307 309 315 307 310 313 312 308 307 313 314 312 310 308 307 306 305 298 299 296 294 282 275 274 276 272 257 246 239 235 230 225 222 218 214
268 280 280 282 294 299 307 299 295 303 306 313 310 311 313 311 313 312 310 309 303 299 297 295 296 300 297 294 290 288 284 274 265 258 252 248 245 245 242 239 235 229 222 216
262 274 288 287 295 308 297 301 314 306 302 309 310 308 309 306 307 306 306 306 304 303 300 298 298 288 285 294 293 288 280 276 266 257 252 245 239 235 231 231 228 228 231 218
264 275 275 282 298 289 287 308 308 305 304 301 307 297 297 297 302 302 302 303 300 299 299 298 297 289 284 281 278 279 276 275 272 260 249 244 238 232 226 221 223 219 215 212
274 284 286 286 288 295 307 306 307 308 309 308 304 306 302 298 299 295 291 292 292 296 298 299 295 291 293 286 275 269 271 274 270 262 253 244 237 232 225 219 202 194 193 206
258 283 285 295 298 302 308 312 312 310 311 309 306 301 300 298 296 297 298 301 303 301 298 299 295 287 293 291 275 269 269 264 266 259 254 245 237 230 224 206 191 179 172 183
300 304 306 299 304 310 313 312 305 305 306 305 304 303 301 296 295 298 301 305 302 301 301 298 293 292 294 289 279 265 265 266 261 256 247 238 231 224 207 193 184 179 179 180
331 325 319 313 313 312 309 307 303 300 301 301 301 303 302 300 299 298 304 305 301 299 299 297 296 299 293 284 272 256 255 258 256 249 241 234 226 210 193 185 183 180 188 191
310 305 304 303 306 309 309 309 306 305 301 303 302 301 300 299 296 301 304 310 305 302 302 302 300 294 286 277 265 249 247 248 241 233 226 216 206 194 188 187 186 195 190 183
316 314 314 309 310 307 302 304 305 304 303 303 302 300 299 300 303 304 306 308 300 307 312 314 307 286 280 277 260 254 236 235 226 218 216 209 199 195 192 193 195 194 183 180
320 320 319 319 321 317 311 314 316 311 308 306 307 304 303 305 304 307 312 302 309 314 317 319 324 305 286 275 228 222 222 219 213 206 199 195 190 188 191 196 194 183 182 187
324 323 323 324 324 323 324 325 316 312 317 320 317 311 310 314 319 322 317 316 326 328 326 322 323 317 280 207 201 201 200 197 196 195 189 188 188 191 193 189 182 180 181 180
326 325 325 327 326 325 330 323 324 324 328 327 331 336 334 333 334 341 343 331 337 343 342 350 346 299 199 199 191 186 185 187 188 187 189 190 192 187 179 177 176 177 175 175
326 326 326 326 329 330 328 334 335 336 338 341 340 343 352 355 4 3 1 14 15 16 28 33 25 60 137 156 166 170 174 178 180 182 184 185 179 173 170 171 173 174 175 176
329 328 327 333 334 331 335 342 346 351 345 344 346 350 358 6 22 26 27 28 34 50 41 35 52 72 109 129 140 150 160 168 169 169 167 164 162 165 169 169 169 170 172 175
333 335 341 338 338 340 342 349 358 6 5 9 13 19 18 16 18 18 26 32 37 47 64 69 66 84 100 111 120 126 133 139 142 144 146 153 158 161 162 164 166 168 171 176
349 353 347 349 351 349 351 0 9 16 16 22 31 35 40 42 45 48 50 56 63 72 77 80 85 94 101 107 111 113 116 121 129 136 142 147 150 154 157 160 164 170 177 186
15 11 7 11 15 12 12 15 22 25 28 26 40 47 57 61 65 71 74 75 76 80 86 91 96 98 101 105 109 112 115 120 126 132 138 143 148 153 158 164 171 179 187 196